timestamp,wind_dir_avg,wind_spd_avg,wind_spd_max_dir,wind_spd_gust,battery_voltage,lat,long
2023-09-28 00:04:00+00:00,243.0,5.42,240.0,6.2,12.41,47.59359,-54.27349
2023-09-28 00:14:01+00:00,243.0,5.04,240.0,5.81,12.41,47.59359,-54.27349
2023-09-28 00:24:01+00:00,231.0,6.73,232.0,7.58,12.41,47.59359,-54.27349
2023-09-28 00:34:01+00:00,228.0,6.15,232.0,6.94,12.41,47.59359,-54.27349
2023-09-28 00:44:01+00:00,224.0,5.1,227.0,5.86,12.41,47.59359,-54.27349
2023-09-28 00:54:01+00:00,226.0,4.9,222.0,6.24,12.41,47.59359,-54.27349
2023-09-28 01:04:01+00:00,226.0,5.44,226.0,6.52,12.41,47.59359,-54.27349
2023-09-28 01:14:00+00:00,231.0,5.14,235.0,5.88,12.41,47.59359,-54.27349
2023-09-28 01:24:00+00:00,243.0,5.93,242.0,6.71,12.41,47.59359,-54.27349
2023-09-28 01:34:00+00:00,238.0,6.84,243.0,8.13,12.41,47.59359,-54.27349
2023-09-28 01:44:00+00:00,241.0,6.51,238.0,8.01,12.41,47.59359,-54.27349
2023-09-28 01:54:00+00:00,234.0,5.54,240.0,7.23,12.41,47.59359,-54.27349
2023-09-28 02:04:00+00:00,237.0,5.16,236.0,5.72,12.41,47.59359,-54.27349
2023-09-28 02:14:00+00:00,238.0,5.33,253.0,6.08,12.41,47.59359,-54.27349
2023-09-28 02:24:00+00:00,237.0,5.72,241.0,8.99,12.41,47.59359,-54.27349
2023-09-28 02:34:00+00:00,238.0,5.02,243.0,6.76,12.41,47.59359,-54.27349
2023-09-28 02:44:00+00:00,235.0,4.83,245.0,5.72,12.41,47.59359,-54.27349
2023-09-28 02:54:00+00:00,235.0,5.78,241.0,9.35,12.41,47.59359,-54.27349
2023-09-28 03:04:00+00:00,232.0,5.07,232.0,6.27,12.41,47.59359,-54.27349
2023-09-28 03:14:00+00:00,234.0,5.26,242.0,7.03,12.41,47.59359,-54.27349
2023-09-28 03:24:00+00:00,240.0,5.22,235.0,6.42,12.41,47.59359,-54.27349
2023-09-28 03:34:00+00:00,242.0,7.24,243.0,9.24,12.41,47.59359,-54.27349
2023-09-28 03:44:00+00:00,242.0,5.29,241.0,6.76,12.41,47.59359,-54.27349
2023-09-28 03:54:00+00:00,242.0,5.14,241.0,6.23,12.41,47.59359,-54.27349
2023-09-28 04:04:00+00:00,249.0,4.94,243.0,6.29,12.41,47.59359,-54.27349
2023-09-28 04:14:01+00:00,266.0,3.92,267.0,4.36,12.41,47.59359,-54.27349
2023-09-28 04:24:01+00:00,268.0,4.04,274.0,4.51,12.41,47.59359,-54.27349
2023-09-28 04:34:01+00:00,269.0,4.45,268.0,5.49,12.41,47.59359,-54.27349
2023-09-28 04:44:01+00:00,256.0,4.39,254.0,4.89,12.41,47.59359,-54.27349
2023-09-28 04:54:01+00:00,268.0,3.87,268.0,4.54,12.41,47.59359,-54.27349
2023-09-28 05:04:01+00:00,262.0,3.87,265.0,4.88,12.41,47.59359,-54.27349
2023-09-28 05:14:00+00:00,265.0,4.83,264.0,5.22,12.33,47.59359,-54.27349
2023-09-28 05:24:00+00:00,268.0,5.48,267.0,6.88,12.33,47.59359,-54.27349
2023-09-28 05:34:00+00:00,259.0,4.93,257.0,5.57,12.33,47.59359,-54.27349
2023-09-28 05:44:00+00:00,265.0,5.04,264.0,6.36,12.33,47.59359,-54.27349
2023-09-28 05:54:00+00:00,270.0,3.78,273.0,4.28,12.33,47.59359,-54.27349
2023-09-28 06:04:00+00:00,286.0,4.32,288.0,4.83,12.33,47.59359,-54.27349
2023-09-28 06:14:01+00:00,284.0,3.41,285.0,4.06,12.33,47.59359,-54.27349
2023-09-28 06:24:01+00:00,285.0,4.11,270.0,6.74,12.33,47.59359,-54.27349
2023-09-28 06:34:01+00:00,290.0,5.41,292.0,6.65,12.33,47.59359,-54.27349
2023-09-28 06:44:01+00:00,294.0,6.37,300.0,7.85,12.33,47.59359,-54.27349
2023-09-28 06:54:01+00:00,302.0,6.27,301.0,7.07,12.33,47.59359,-54.27349
2023-09-28 07:04:01+00:00,302.0,7.04,304.0,8.79,12.33,47.59359,-54.27349
2023-09-28 07:14:01+00:00,304.0,7.29,305.0,8.41,12.33,47.59359,-54.27349
2023-09-28 07:24:01+00:00,302.0,8.14,308.0,9.26,12.33,47.59359,-54.27349
2023-09-28 07:34:01+00:00,306.0,8.34,304.0,9.23,12.33,47.59359,-54.27349
2023-09-28 07:44:01+00:00,305.0,7.46,304.0,9.16,12.33,47.59359,-54.27349
2023-09-28 07:54:01+00:00,300.0,7.72,296.0,8.42,12.33,47.59359,-54.27349
2023-09-28 08:04:01+00:00,299.0,7.62,300.0,8.27,12.33,47.59359,-54.27349
2023-09-28 08:14:00+00:00,295.0,7.32,293.0,8.38,12.25,47.59359,-54.27349
2023-09-28 08:24:00+00:00,299.0,8.1,294.0,9.14,12.25,47.59359,-54.27349
2023-09-28 08:34:00+00:00,299.0,8.13,303.0,9.23,12.25,47.59359,-54.27349
2023-09-28 08:44:00+00:00,297.0,7.67,295.0,9.04,12.25,47.59359,-54.27349
2023-09-28 08:54:00+00:00,299.0,8.07,300.0,9.16,12.25,47.59359,-54.27349
2023-09-28 09:04:00+00:00,298.0,7.29,296.0,8.68,12.25,47.59359,-54.27349
2023-09-28 09:14:00+00:00,302.0,6.6,298.0,7.49,12.25,47.59359,-54.27349
2023-09-28 09:24:00+00:00,304.0,7.55,301.0,8.54,12.25,47.59359,-54.27349
2023-09-28 09:34:00+00:00,298.0,6.42,296.0,7.67,12.25,47.59359,-54.27349
2023-09-28 09:44:00+00:00,304.0,7.01,309.0,7.87,12.25,47.59359,-54.27349
2023-09-28 09:54:00+00:00,303.0,6.83,298.0,8.32,12.25,47.59359,-54.27349
2023-09-28 10:04:00+00:00,308.0,6.72,305.0,7.85,12.25,47.59359,-54.27349
2023-09-28 10:14:01+00:00,306.0,6.57,301.0,7.71,12.25,47.59359,-54.27349
2023-09-28 10:24:01+00:00,305.0,7.68,302.0,9.2,12.25,47.59359,-54.27349
2023-09-28 10:34:01+00:00,304.0,6.83,299.0,8.08,12.25,47.59359,-54.27349
2023-09-28 10:44:01+00:00,311.0,7.15,306.0,8.52,12.25,47.59359,-54.27349
2023-09-28 10:54:01+00:00,313.0,5.99,325.0,7.62,12.25,47.59359,-54.27349
2023-09-28 11:04:01+00:00,320.0,5.86,327.0,7.44,12.25,47.59359,-54.27349
2023-09-28 11:14:01+00:00,318.0,5.79,312.0,6.86,12.97,47.59359,-54.27349
2023-09-28 11:24:01+00:00,324.0,5.46,322.0,6.41,12.97,47.59359,-54.27349
2023-09-28 11:34:01+00:00,330.0,5.6,327.0,7.62,12.97,47.59359,-54.27349
2023-09-28 11:44:01+00:00,327.0,5.46,322.0,6.35,12.97,47.59359,-54.27349
2023-09-28 11:54:01+00:00,330.0,5.38,330.0,6.02,12.97,47.59359,-54.27349
2023-09-28 12:04:01+00:00,326.0,5.35,323.0,6.41,12.97,47.59359,-54.27349
2023-09-28 12:14:01+00:00,338.0,6.03,348.0,7.34,13.84,47.59359,-54.27349
2023-09-28 12:24:01+00:00,342.0,6.08,339.0,6.69,13.84,47.59359,-54.27349
2023-09-28 12:34:01+00:00,339.0,4.98,337.0,5.45,13.84,47.59359,-54.27349
2023-09-28 12:44:01+00:00,336.0,4.63,335.0,5.16,13.84,47.59359,-54.27349
2023-09-28 12:54:01+00:00,350.0,5.97,348.0,6.81,13.84,47.59359,-54.27349
2023-09-28 13:04:01+00:00,356.0,5.12,359.0,5.56,13.84,47.59359,-54.27349
2023-09-28 13:14:00+00:00,354.0,6.87,358.0,7.95,14.0,47.59359,-54.27349
2023-09-28 13:24:00+00:00,354.0,6.67,4.0,7.71,14.0,47.59359,-54.27349
2023-09-28 13:34:00+00:00,353.0,5.87,356.0,6.29,14.0,47.59359,-54.27349
2023-09-28 13:44:00+00:00,356.0,5.93,356.0,6.7,14.0,47.59359,-54.27349
2023-09-28 13:54:00+00:00,357.0,6.64,1.0,7.35,14.0,47.59359,-54.27349
2023-09-28 14:04:00+00:00,344.0,4.71,343.0,5.36,14.0,47.59359,-54.27349
2023-09-28 14:14:00+00:00,356.0,5.86,358.0,6.38,14.4,47.59359,-54.27349
2023-09-28 14:24:00+00:00,3.0,5.86,5.0,6.79,14.4,47.59359,-54.27349
2023-09-28 14:34:00+00:00,4.0,6.78,4.0,8.1,14.4,47.59359,-54.27349
2023-09-28 14:44:00+00:00,13.0,5.64,15.0,6.38,14.4,47.59359,-54.27349
2023-09-28 14:54:00+00:00,16.0,4.51,18.0,5.01,14.4,47.59359,-54.27349
2023-09-28 15:04:00+00:00,9.0,6.06,12.0,7.16,14.4,47.59359,-54.27349
2023-09-28 15:14:00+00:00,5.0,5.58,2.0,6.45,14.24,47.59359,-54.27349
2023-09-28 15:24:00+00:00,2.0,5.01,4.0,5.45,14.24,47.59359,-54.27349
2023-09-28 15:34:00+00:00,354.0,4.1,354.0,5.23,14.24,47.59359,-54.27349
2023-09-28 15:44:00+00:00,357.0,3.75,15.0,4.45,14.24,47.59359,-54.27349
2023-09-28 15:54:00+00:00,67.0,5.2,64.0,6.14,14.24,47.59359,-54.27349
2023-09-28 16:04:00+00:00,56.0,4.45,56.0,5.14,14.24,47.59359,-54.27349
2023-09-28 16:14:01+00:00,55.0,6.01,57.0,7.06,14.16,47.59359,-54.27349
2023-09-28 16:24:01+00:00,62.0,4.82,54.0,5.49,14.16,47.59359,-54.27349
2023-09-28 16:34:01+00:00,44.0,6.78,43.0,7.78,14.16,47.59359,-54.27349
2023-09-28 16:44:01+00:00,64.0,5.32,60.0,5.88,14.16,47.59359,-54.27349
2023-09-28 16:54:01+00:00,56.0,5.15,50.0,5.69,14.16,47.59359,-54.27349
2023-09-28 17:04:01+00:00,55.0,6.64,54.0,7.37,14.16,47.59359,-54.27349
2023-09-28 17:14:00+00:00,23.0,6.56,31.0,7.47,13.68,47.59359,-54.27349
2023-09-28 17:24:00+00:00,21.0,6.43,19.0,7.44,13.68,47.59359,-54.27349
2023-09-28 17:34:00+00:00,24.0,9.48,24.0,10.28,13.68,47.59359,-54.27349
2023-09-28 17:44:00+00:00,24.0,6.2,30.0,7.16,13.68,47.59359,-54.27349
2023-09-28 17:54:00+00:00,27.0,6.31,27.0,7.32,13.68,47.59359,-54.27349
2023-09-28 18:04:00+00:00,6.0,6.39,6.0,7.51,13.68,47.59359,-54.27349
2023-09-28 18:14:01+00:00,20.0,7.88,16.0,9.11,14.32,47.59359,-54.27349
2023-09-28 18:24:01+00:00,16.0,7.34,15.0,8.42,14.32,47.59359,-54.27349
2023-09-28 18:34:01+00:00,7.0,6.79,359.0,8.27,14.32,47.59359,-54.27349
2023-09-28 18:44:01+00:00,16.0,5.97,18.0,6.73,14.32,47.59359,-54.27349
2023-09-28 18:54:01+00:00,17.0,6.45,13.0,7.71,14.32,47.59359,-54.27349
2023-09-28 19:04:01+00:00,23.0,6.69,26.0,7.87,14.32,47.59359,-54.27349
2023-09-28 19:14:01+00:00,2.0,6.62,358.0,7.89,13.76,47.59359,-54.27349
2023-09-28 19:24:01+00:00,18.0,6.09,19.0,6.86,13.76,47.59359,-54.27349
2023-09-28 19:34:01+00:00,6.0,7.61,4.0,8.56,13.76,47.59359,-54.27349
2023-09-28 19:44:01+00:00,353.0,5.52,351.0,6.1,13.76,47.59359,-54.27349
2023-09-28 19:54:01+00:00,1.0,7.31,358.0,8.13,13.76,47.59359,-54.27349
2023-09-28 20:04:01+00:00,1.0,6.28,2.0,8.03,13.76,47.59359,-54.27349
2023-09-28 20:14:01+00:00,26.0,6.23,23.0,6.87,13.68,47.59359,-54.27349
2023-09-28 20:24:01+00:00,21.0,7.44,20.0,9.08,13.68,47.59359,-54.27349
2023-09-28 20:34:01+00:00,13.0,8.14,16.0,9.14,13.68,47.59359,-54.27349
2023-09-28 20:44:01+00:00,20.0,9.19,19.0,10.11,13.68,47.59359,-54.27349
2023-09-28 20:54:01+00:00,16.0,8.86,15.0,9.54,13.68,47.59359,-54.27349
2023-09-28 21:04:01+00:00,17.0,9.71,20.0,10.83,13.68,47.59359,-54.27349
2023-09-28 21:14:00+00:00,15.0,9.62,17.0,10.57,13.13,47.59359,-54.27349
2023-09-28 21:24:00+00:00,8.0,7.32,6.0,8.63,13.13,47.59359,-54.27349
2023-09-28 21:34:00+00:00,15.0,8.22,13.0,9.62,13.13,47.59359,-54.27349
2023-09-28 21:44:00+00:00,11.0,7.76,7.0,9.13,13.13,47.59359,-54.27349
2023-09-28 21:54:00+00:00,13.0,8.07,18.0,9.63,13.13,47.59359,-54.27349
2023-09-28 22:04:00+00:00,19.0,7.82,24.0,9.17,13.13,47.59359,-54.27349
2023-09-28 22:14:00+00:00,23.0,7.73,21.0,8.47,12.57,47.59359,-54.27349
2023-09-28 22:24:00+00:00,25.0,7.48,24.0,8.58,12.57,47.59359,-54.27349
2023-09-28 22:34:00+00:00,25.0,5.65,34.0,6.8,12.57,47.59359,-54.27349
2023-09-28 22:44:00+00:00,16.0,5.19,18.0,5.85,12.57,47.59359,-54.27349
2023-09-28 22:54:00+00:00,32.0,6.46,30.0,7.15,12.57,47.59359,-54.27349
2023-09-28 23:04:00+00:00,31.0,6.59,27.0,7.19,12.57,47.59359,-54.27349
2023-09-28 23:14:01+00:00,27.0,6.94,17.0,8.0,12.41,47.59359,-54.27349
2023-09-28 23:24:01+00:00,29.0,4.89,28.0,5.87,12.41,47.59359,-54.27349
2023-09-28 23:34:01+00:00,32.0,6.43,34.0,7.77,12.41,47.59359,-54.27349
2023-09-28 23:44:01+00:00,34.0,6.41,35.0,7.52,12.41,47.59359,-54.27349
2023-09-28 23:54:01+00:00,30.0,5.67,25.0,6.48,12.41,47.59359,-54.27349
